Theta_e
312 314 315 316 322 323 323 322 320 325 332 332 332 333 334 332 334 338 325 328 329 334 334 335 332 329 331 331 331 332 334 334 333 331 330 328 325 323 326 329 328 322 316 316 330 326 323 324 323
313 315 315 318 321 321 322 320 324 323 327 327 325 326 326 325 320 321 326 325 331 334 334 335 335 333 330 331 332 332 333 334 335 335 330 329 327 326 327 329 330 327 320 317 316 322 325 327 327
315 314 319 321 321 321 322 320 321 319 320 328 324 320 321 321 319 321 316 332 332 335 334 336 335 334 332 331 332 332 333 334 334 334 334 332 331 328 328 329 330 330 328 319 319 332 326 328 327
314 316 317 320 321 318 319 318 316 317 318 320 321 322 318 318 322 315 315 329 334 334 335 336 336 334 334 329 331 332 332 333 333 333 333 334 334 333 332 330 330 330 330 327 322 322 331 325 330
314 316 320 321 319 317 317 315 315 317 318 319 319 320 319 321 316 314 313 313 315 329 336 337 336 336 335 335 330 330 331 331 332 333 333 333 333 333 332 332 331 330 330 330 326 327 332 326 328
317 316 319 320 319 317 316 315 315 316 315 314 318 319 318 316 316 314 313 311 311 311 318 332 334 335 334 334 335 332 330 330 330 331 332 332 332 332 331 330 329 329 331 331 331 331 332 328 327
318 318 318 319 318 317 316 314 315 315 315 315 316 318 317 318 315 314 313 312 311 310 310 313 320 328 332 332 332 333 332 330 326 327 329 330 330 331 331 328 326 327 328 331 331 331 331 328 327
315 317 317 317 317 316 314 314 312 313 314 311 314 316 317 317 315 314 313 312 309 308 308 308 309 309 310 316 325 329 331 331 330 327 327 326 327 327 327 326 327 326 328 330 331 331 329 328 328
312 318 318 316 316 316 312 314 311 311 312 310 312 314 313 315 315 314 312 311 309 308 307 307 307 307 307 307 307 308 314 326 330 330 330 329 328 329 328 328 327 326 327 328 330 332 330 327 327
317 318 316 314 314 315 313 312 312 313 312 312 312 311 312 314 315 314 313 310 308 307 307 307 307 307 307 307 307 307 307 307 309 313 321 327 330 331 330 329 329 327 327 327 327 329 332 330 327
313 316 314 313 313 312 313 313 313 313 314 312 313 313 313 314 314 313 312 310 308 308 308 308 308 308 308 307 307 307 308 308 307 306 307 307 308 313 323 328 330 329 327 328 327 328 331 331 330
314 312 312 313 311 312 312 312 312 311 312 311 311 312 314 314 315 313 312 310 309 309 308 308 307 307 306 306 306 306 306 307 307 308 308 307 306 307 308 314 324 329 328 326 325 329 330 329 330
314 312 312 311 311 312 311 312 312 311 309 309 310 311 313 314 314 312 310 310 310 309 309 308 307 306 306 306 306 306 306 306 306 306 306 307 308 308 308 308 308 311 319 327 328 329 330 331 330
312 312 312 312 311 311 311 311 309 310 309 310 310 310 311 313 313 312 311 311 310 310 309 308 307 306 306 306 306 306 306 306 306 306 306 306 306 307 308 308 308 308 309 319 328 329 330 330 328
311 313 313 310 310 311 308 310 311 307 309 310 309 309 310 313 313 313 312 311 311 310 309 309 308 307 306 306 306 306 305 305 305 305 305 305 306 306 306 307 308 309 310 321 323 328 327 325 324
310 311 313 309 309 309 310 313 309 307 308 309 309 309 311 312 312 312 311 311 311 310 310 309 308 307 306 305 305 305 305 304 304 304 304 304 305 305 305 306 307 309 312 315 322 318 320 323 325
312 314 312 312 308 309 311 313 308 307 308 309 308 311 312 311 311 311 310 310 310 309 308 307 306 305 304 304 303 303 303 303 303 303 304 304 304 304 304 305 305 306 310 312 315 321 320 320 323
314 314 312 312 310 310 311 311 309 308 308 308 308 311 312 311 310 309 308 309 308 307 305 304 303 303 302 302 302 301 301 301 301 302 302 303 303 303 304 304 304 305 306 313 315 317 317 318 319
310 311 311 311 307 310 311 310 309 308 308 309 310 310 310 308 308 308 308 307 305 303 302 301 300 299 299 299 299 299 298 299 299 298 298 299 300 302 302 303 304 304 305 306 313 314 317 319 320
309 310 313 311 307 309 310 310 308 307 307 307 309 310 308 308 308 307 305 304 305 303 301 299 298 297 298 297 297 298 298 298 298 298 298 297 297 297 298 301 302 304 304 305 307 314 314 316 317
308 311 311 310 310 307 309 311 309 308 308 308 309 308 309 309 307 305 304 303 302 303 304 305 303 300 300 300 299 299 298 298 297 297 297 297 296 295 296 297 299 301 304 305 306 309 314 313 316
312 307 308 309 310 314 308 317 310 309 309 309 309 309 309 306 305 304 304 303 302 302 300 300 302 303 300 297 297 297 296 296 297 297 297 296 295 295 295 295 296 297 299 303 305 308 311 314 314
311 307 307 308 310 311 311 314 311 308 310 310 309 309 308 306 304 303 302 301 301 301 302 302 302 300 297 296 295 296 295 295 295 296 296 296 295 294 294 294 295 295 296 298 303 305 309 311 313
307 307 308 309 311 318 311 312 312 311 308 308 309 308 307 304 303 302 301 302 302 302 302 301 300 298 296 295 295 295 295 294 294 294 294 294 294 294 294 293 294 294 295 296 298 302 306 309 311
309 311 318 317 320 314 308 310 312 306 305 305 307 308 305 302 302 301 302 303 300 298 295 295 295 296 295 294 293 293 292 292 292 292 291 292 292 292 293 292 293 293 294 295 295 298 301 306 309
308 309 319 315 316 312 306 310 311 305 305 306 305 307 303 303 302 301 298 296 295 295 296 296 293 292 292 292 291 291 291 290 290 291 291 291 291 291 291 292 292 293 293 294 295 295 299 302 306
308 311 306 310 307 309 310 308 305 305 306 305 304 303 303 300 298 296 295 295 295 293 291 291 291 290 290 290 290 290 289 289 289 290 290 290 290 290 290 291 291 292 292 293 294 295 296 300 302
307 306 310 310 314 311 309 308 309 307 306 305 303 302 300 298 296 294 293 292 291 291 290 290 289 289 289 289 289 289 288 288 288 288 289 289 290 290 290 290 290 291 291 293 293 294 295 298 301
308 309 307 307 308 312 310 309 306 305 304 304 304 300 297 295 294 293 292 290 290 290 289 289 289 289 288 288 288 288 288 287 288 288 288 288 288 289 290 290 290 290 291 293 293 294 294 295 300
304 306 307 312 311 309 309 309 303 302 302 302 301 297 295 293 292 291 290 289 289 288 288 288 287 287 287 287 287 287 287 286 286 287 287 287 287 288 288 289 290 290 290 291 292 293 293 294 296
Wind_Speed
8 8 7 2 3 2 4 3 1 3 3 4 4 3 5 7 5 3 5 4 7 6 6 4 4 5 4 4 5 5 6 7 6 7 6 6 6 5 4 3 2 2 1 5 6 4 5 7 8
8 7 3 1 2 3 4 3 4 3 3 3 3 2 3 4 4 3 3 7 3 4 5 6 6 6 5 5 5 6 6 7 8 8 8 8 7 7 6 5 4 3 2 3 5 7 4 6 7
7 4 1 1 2 1 4 4 5 5 1 1 1 3 1 2 3 3 9 9 6 6 4 4 8 8 8 7 6 6 7 7 8 8 9 9 9 9 8 7 6 6 4 4 6 7 8 8 8
3 2 3 1 6 4 5 6 3 5 3 2 2 3 3 1 1 4 7 7 7 7 6 7 9 9 9 9 9 8 8 8 8 9 10 10 11 10 9 9 8 7 7 6 8 10 10 8 8
3 1 2 4 4 4 4 3 1 2 2 1 2 1 2 2 2 4 7 8 8 8 6 6 9 10 10 10 11 11 10 10 10 10 11 12 12 13 12 10 9 9 9 9 8 10 10 10 10
1 1 2 4 4 4 3 3 1 1 2 2 1 2 3 4 1 2 5 9 11 10 9 7 7 10 13 13 14 12 12 12 11 11 13 14 15 15 14 13 12 11 10 10 8 9 10 11 12
3 1 3 4 6 4 3 1 0 0 1 1 2 2 2 4 3 1 4 8 11 11 9 8 8 7 7 9 12 14 15 14 14 14 14 15 16 16 16 14 14 13 13 11 10 10 11 11 12
3 3 5 2 5 3 2 2 2 2 0 0 1 1 2 5 5 0 4 8 10 9 9 8 8 9 9 8 6 8 13 15 14 17 23 20 17 17 17 16 16 15 14 13 13 13 14 14 14
4 2 4 5 5 5 3 3 1 1 3 2 2 1 3 7 6 2 3 6 8 8 8 9 9 9 9 9 8 7 7 7 10 13 17 18 19 18 17 17 17 17 15 14 15 15 18 19 16
3 1 3 2 3 4 3 2 1 3 4 6 5 5 5 9 7 4 1 2 5 5 7 8 9 11 11 11 10 10 9 9 9 9 11 13 16 17 17 18 21 19 15 16 16 17 19 21 24
4 3 6 3 2 2 2 2 2 4 5 3 3 5 9 10 7 4 1 2 3 5 6 7 9 10 10 10 11 10 10 9 9 9 10 10 11 11 14 16 16 19 17 16 17 19 22 23 21
5 5 3 4 2 1 1 3 3 4 4 4 6 4 8 8 6 4 3 1 2 5 7 8 9 9 9 9 10 10 10 10 10 10 11 10 10 10 10 10 13 17 18 17 17 22 23 23 26
8 4 4 4 2 2 3 3 4 4 9 4 3 6 8 8 7 7 4 1 2 3 5 8 11 12 11 10 10 10 11 12 13 12 12 12 12 11 10 10 11 11 16 18 22 23 24 29 28
5 6 5 2 2 2 4 3 3 6 11 4 1 4 4 6 7 6 4 2 1 3 6 9 10 11 12 12 12 11 11 12 13 14 14 14 14 14 13 12 11 11 11 12 11 16 23 27 25
4 3 4 5 5 1 3 3 5 10 10 4 2 3 4 5 7 6 6 4 1 3 6 8 11 12 13 13 13 12 12 13 13 13 14 14 15 15 15 14 13 11 10 7 9 17 15 9 11
1 1 1 3 7 2 5 3 4 12 13 7 2 3 6 8 8 7 6 3 1 3 6 10 11 12 13 13 13 13 13 14 14 15 15 15 15 16 17 16 14 12 10 9 12 17 23 18 14
4 1 3 2 5 5 5 4 4 14 11 7 2 3 8 9 8 7 5 3 3 6 8 10 11 12 13 12 13 13 13 13 14 15 17 17 16 15 16 17 17 15 13 11 16 19 22 20 16
3 3 3 5 6 7 8 4 10 12 10 6 4 6 8 8 9 7 6 4 6 9 11 12 13 14 14 13 12 12 13 14 15 16 16 17 18 18 17 16 16 17 16 15 14 15 17 19 18
3 3 5 5 3 11 3 6 5 9 10 8 8 9 9 9 7 6 5 5 6 8 11 14 15 18 19 20 20 20 20 19 17 17 17 18 18 18 18 18 17 16 17 18 16 17 19 20 23
2 3 4 5 3 8 5 8 3 9 9 9 8 9 9 8 6 5 5 7 9 10 12 14 17 18 20 21 22 22 22 21 20 20 20 20 19 19 19 19 19 18 17 17 18 16 19 19 22
1 5 8 6 11 2 11 4 2 5 7 8 9 9 8 7 5 3 4 8 9 10 13 16 15 14 17 21 27 27 26 26 26 26 25 23 22 21 20 19 19 19 17 17 18 19 15 20 19
1 2 5 9 6 3 4 3 2 2 3 4 6 7 7 6 5 4 5 5 7 11 11 11 16 21 20 20 20 23 26 29 30 31 31 28 26 25 23 21 19 19 19 17 18 17 18 17 22
3 6 4 2 2 4 1 3 5 3 3 5 6 6 5 5 3 3 5 5 6 11 17 17 18 20 22 24 26 28 29 31 34 34 34 33 32 30 26 23 21 20 20 19 18 20 19 19 19
6 2 2 1 1 2 2 5 2 2 1 3 8 8 6 4 1 3 3 5 13 20 18 17 18 20 25 28 30 31 32 33 35 36 37 35 33 31 28 25 23 21 20 20 20 18 22 22 21
4 5 2 1 1 3 2 5 6 2 1 6 8 10 7 3 1 3 8 17 13 14 17 20 24 26 28 32 33 33 33 34 33 34 33 34 33 30 28 27 24 22 21 20 21 21 20 23 26
4 5 1 4 4 9 2 6 1 1 2 2 7 8 6 3 2 7 10 11 12 16 21 26 28 30 30 32 33 33 32 30 31 30 31 31 30 29 28 28 26 25 23 22 21 22 21 21 25
2 1 3 4 1 2 3 3 4 3 3 4 6 6 4 2 3 6 9 12 16 20 23 26 29 31 30 31 32 31 29 29 29 29 29 28 27 26 27 27 27 26 25 24 22 22 23 21 20
2 4 2 1 5 6 5 7 5 5 3 6 8 7 4 3 5 7 11 16 19 23 26 28 28 29 30 30 29 30 30 28 27 27 27 27 28 27 26 26 25 25 24 23 22 23 23 23 20
1 2 1 2 3 4 6 4 3 2 3 5 7 4 2 5 7 9 14 18 22 25 26 27 27 29 29 29 30 29 29 28 27 26 25 25 27 27 27 26 25 24 23 21 21 22 23 24 22
1 2 2 3 3 4 3 9 3 4 3 2 4 4 4 7 8 11 15 18 22 25 26 27 28 28 28 30 29 29 28 26 25 25 25 25 25 25 26 26 27 25 23 22 22 22 24 24 25
Wind_Direction
122 127 126 79 200 89 93 102 205 147 127 61 56 16 43 34 2 16 333 328 341 328 315 307 295 279 280 268 252 256 253 241 238 237 227 222 227 232 242 262 291 316 240 204 199 226 205 203 220
132 134 102 160 236 187 135 154 152 64 70 87 52 357 32 63 32 30 31 316 325 315 308 288 273 290 273 268 260 265 263 243 237 234 230 233 237 240 243 249 264 278 279 235 207 199 219 204 195
135 134 243 99 132 126 112 134 93 66 110 267 104 53 47 64 36 28 352 344 332 331 306 277 271 270 264 255 267 266 260 249 242 244 241 238 242 242 240 243 249 253 257 250 225 214 204 222 214
97 42 57 330 94 75 89 128 149 165 117 174 163 147 101 129 100 29 16 15 352 328 314 262 248 260 273 261 250 254 252 249 250 249 248 243 241 242 249 252 253 254 257 262 242 231 224 211 212
78 58 109 92 87 120 110 70 118 172 112 94 283 96 95 73 64 26 18 18 10 355 334 291 265 263 268 261 247 246 249 249 249 249 249 249 248 246 247 250 254 255 256 258 259 238 222 206 206
66 358 181 167 135 118 95 59 124 87 90 88 182 155 126 186 156 14 22 17 14 6 359 339 296 281 273 268 268 256 256 253 251 250 256 252 250 250 250 252 253 256 254 257 253 238 223 211 208
89 44 86 126 118 138 99 54 43 75 210 84 149 258 161 166 199 45 14 8 358 352 351 358 2 350 319 285 270 261 257 250 261 268 267 262 257 254 256 255 258 258 256 254 246 231 229 212 212
78 80 115 72 156 115 113 151 178 256 27 344 263 327 58 188 199 242 7 1 357 357 356 354 355 356 3 1 336 305 282 265 248 238 256 266 265 261 261 262 260 252 250 251 249 237 222 217 214
70 113 133 157 167 139 148 199 173 275 265 233 221 255 217 192 196 171 355 348 348 354 3 8 5 1 356 350 344 339 332 314 284 260 252 257 257 258 258 258 261 256 247 243 247 247 235 227 214
29 119 121 96 102 133 150 233 225 249 225 229 220 243 219 179 179 175 139 346 356 12 18 14 9 1 355 347 341 335 326 318 315 308 298 284 276 271 261 255 256 253 248 248 245 246 241 235 235
30 64 129 135 123 132 152 210 228 259 260 283 275 208 187 176 184 187 170 353 8 20 17 15 10 8 2 357 355 347 342 334 321 310 300 296 295 297 282 263 254 242 239 241 250 247 240 241 239
104 75 70 120 77 45 264 279 257 260 331 334 312 214 189 183 182 176 169 81 32 9 8 9 12 9 10 16 11 9 5 2 356 350 340 323 303 292 292 296 270 256 244 243 254 251 244 246 243
83 110 86 106 119 197 252 277 321 317 343 299 292 188 184 183 176 189 188 177 39 1 0 5 5 2 7 7 9 8 7 6 3 359 353 346 339 326 310 297 291 288 273 268 253 243 242 248 239
90 104 112 84 28 41 335 328 316 26 344 352 82 162 168 167 166 173 148 136 240 333 355 358 353 354 354 352 354 357 358 358 357 353 350 347 341 337 332 325 312 296 288 280 276 266 241 231 225
116 125 152 49 349 81 315 151 81 13 13 32 72 97 122 138 142 142 165 177 184 354 356 351 352 351 348 346 345 347 350 349 348 347 344 340 334 331 329 326 323 314 295 274 273 219 217 223 252
100 159 301 79 2 23 318 87 100 7 356 356 22 104 119 124 136 143 169 170 115 358 350 354 354 351 349 350 350 348 348 348 345 343 343 338 330 323 320 319 316 308 300 261 251 248 264 276 271
41 40 349 343 49 335 11 328 44 356 356 348 301 135 136 125 108 101 103 89 50 17 7 360 356 355 356 356 356 354 351 349 347 344 341 339 334 327 319 312 308 304 292 275 247 256 263 269 264
352 339 311 309 9 344 323 315 346 2 9 24 79 123 114 99 89 94 94 71 37 17 11 9 8 5 3 359 360 359 358 357 354 350 346 342 337 332 323 315 306 298 292 282 266 253 254 260 261
343 309 302 323 39 330 312 327 27 9 32 57 89 104 105 106 109 102 88 64 47 45 33 21 14 11 -0 358 358 359 358 355 351 351 350 346 341 335 330 323 308 300 287 280 271 263 253 253 245
265 296 341 306 351 327 335 335 58 36 44 66 108 119 122 121 117 93 64 34 14 16 23 19 12 6 359 354 352 352 347 346 346 344 340 338 336 333 331 325 322 306 295 282 273 261 258 259 252
82 356 336 303 319 316 314 161 152 74 77 84 93 114 124 129 119 89 35 34 22 357 336 331 333 339 336 337 337 335 334 334 336 335 334 334 334 328 323 320 318 316 302 288 279 269 259 253 259
310 37 314 302 313 313 336 306 135 121 129 100 126 141 141 134 124 77 29 17 12 346 336 340 325 322 324 321 323 327 328 328 329 327 326 325 325 324 320 313 308 307 308 297 278 270 258 249 248
1 335 302 300 285 303 144 268 117 202 190 187 178 172 170 161 137 56 52 39 9 313 314 321 319 316 314 319 322 324 323 322 321 320 318 318 318 318 315 310 304 301 299 300 292 271 261 247 245
325 234 168 161 298 256 47 344 222 152 103 184 192 194 188 183 169 77 49 357 319 311 318 317 312 313 314 316 317 317 316 315 315 314 313 312 311 311 308 305 302 297 294 293 294 285 261 252 244
320 281 326 276 274 319 125 286 307 95 288 277 216 198 191 183 189 339 332 326 327 326 327 324 319 316 314 315 314 313 311 311 310 309 308 308 308 305 302 299 296 294 291 288 287 289 284 257 249
9 344 45 302 296 307 118 232 156 32 346 327 196 183 175 182 293 322 329 329 333 328 323 318 316 316 315 314 312 312 311 309 308 307 305 304 302 300 298 294 291 288 288 286 286 282 281 278 256
40 21 2 286 8 263 258 240 167 148 139 146 163 182 207 181 330 334 325 323 323 320 321 321 320 318 318 316 314 312 312 309 307 305 303 302 300 299 296 292 289 286 283 282 282 281 277 278 272
12 123 255 206 308 299 225 282 272 177 205 202 203 216 219 308 330 325 324 320 323 324 324 323 322 321 319 318 315 313 312 309 307 305 304 302 300 299 297 295 290 285 281 280 280 278 274 270 275
169 179 135 297 256 279 305 279 98 275 293 241 213 207 266 320 323 321 319 320 324 325 324 323 323 321 319 318 318 315 313 311 309 306 305 303 301 301 298 296 294 289 283 278 278 276 274 271 265
298 258 252 290 237 246 292 281 110 121 102 139 192 228 295 326 322 321 321 323 325 326 327 326 325 321 321 320 319 317 314 313 310 308 306 305 302 299 297 295 293 290 284 279 277 275 272 269 265